Погода Ханты-Мансийск

Погода Ханты-Мансийск : погода сейчас, прогноз погоды и архив. Всё, что Вы хотите узнать о погоде Ханты-Мансийск!

Хотите узнать прогноз погоды Ханты-Мансийск? Тогда Вам сюда: Погода Ханты-Мансийск

Поиск расширенной информации на нашем сайте:

Другие новости

Новости СМИ2

Главная страница сайта

Новости сайта

02.10.2013

Напоминаем, что на нашем новом сайте вы можете получить высокодетализированные прогнозы погоды по пунктам России, СНГ и мира (включающие важные для авиации метеовеличины, такие как направление и скорость ветра, видимость, явления погоды, количество и форма облачности, нижняя и верхняя граница облачности), а также ознакомиться с разнообразными материалами по авиационной метеорологии и подборкой полезных ссылок на эту тему.

Сайт Метеоцентр.Азия посвящён разработке технологий оптимизации авиаметеорологического обслуживания, включая проектирование и перспективное создание нескольких автоматизированных авиаметеорологических систем:
- система выпуска высокодетальных прогностических карт явлений погоды для нижнего воздушного пространства по России и ближнему зарубежью;
- система верификации прогнозов TAF (выпускаемых синоптиками официальных АМСГ РФ и ближнего зарубежья) и AUTOTAF (выпускаемых сайтом Метеоцентр.Азия) - выявление ошибок, онлайн-сопоставление с фактической погодой METAR, автоматическое внесение коррективов в прогнозы при резком отклонении фактической погоды от прогноза, подсчёт оправдываемости прогнозов по элементам и в целом;
- система обработки, анализа и отображения авиаметеорологической информации для применения провайдерами метеорологической информации.


Погода Ханты-Мансийск - сегодня

Время (UTC), дата Ветер
(°,м/с) 
Видим.   Явления Облачность Т
(°С)
Тd
(°С)
f(%) Тe
(°С)
Pmin
(гПа)
dP
(гПа)
Po
(мм)
O2
(г/м3)
Тmin Tmax R s Состояние
почвы
03 26.05.17 280 (З) 10 км    1/0 верхняя 
[Ci fib]
+7 -4.3 44 +7  1020.7  1.6  761  300  -0.6        влажная 
06 26.05.17 260 (З) 10 км    ясно 
+10.2 -6.9 29 +10  1020  -0.6  761  296           
09 26.05.17 210 (ЮЗ) 10 км    8/4 1000 м средняя 
[Sc|Ac lent]
+12.7 -4.1 31 +13  1017.9  -2  759  293           
12 26.05.17 190 (Ю) 10 км    10/10 1000 м 
[Sc]
+12.2 -2.3 36 +13  1015.9  -2.1  758  293           
15 26.05.17 130 (ЮВ) 3{10}  10 км    10/10 600 м 
[Sc]
+11.8 +0.2 45 +12  1011.3  -4.6  755  291    +12.8       
18 26.05.17 170 (Ю) 10 км    10/6 600 м средняя 
[Sc|Ac As]
+11.6 +2.7 54 +11  1007.8  -3.6  752  290           
00 27.05.17 240 (ЮЗ) 10 км  {ливн. осадки}  10/0 верхняя 
[Cs]
+13.4 +7.8 69 +13  1004.8  -0.1  750  287           
03 27.05.17 240 (ЮЗ) 10 км    10/0 верхняя 
[Cs]
+17.9 +9.3 57 +18  1005.3  0.6  750  282  +10.5    0.4     
06 27.05.17 230 (ЮЗ) 10 км    8/3 600 м средняя, верхняя 
[Cu hum|Ac cast|Cs]
+22.1 +7.1 38 +22  1005.2  750  278           
09 27.05.17 240 (ЮЗ) 4{11}  10 км    8/4 600 м средняя 
[Cu med, cong|Ac lent]
+24.9 +5.5 29 +25  1004.6  -0.6  750  276           
12 27.05.17 250 (З) 10 км    10/0 средняя, верхняя 
[Cu med, cong|Ac lent|Ci fib]
+25.9 +5.9 28 +26  1003  -1.5  749  275           
15 27.05.17 тихо () {10}  10 км  в посл. час ливневой дождь{гроза}  10/8 1000 м кучево-дожд., средняя 
[Cb cap|As op]
+18.7 +10.3 58 +20  1002.3  -0.8  748  280    +25.9  0.0     
18 27.05.17 210 (ЮЗ) 10 км  {гроза, ливн. осадки}  8/8 600 м кучево-дожд. 
[Cb calv]
+16.6 +9.5 63 +19  1001.8  -0.6  747  282           
21 27.05.17 160 (Ю) 10 км    8/0 верхняя 
[Ci sp]
+13.8 +9 73 +14  1000.4  -1.5  746  285           
00 28.05.17 170 (Ю) 10 км    8/0 верхняя 
[Cc]
+14.1 +7.8 66 +15  998.9  -1.4  745  284           
03 28.05.17 170 (Ю) 10 км    8/0 средняя, верхняя 
[Ac lent|Ci]
+18.8 +5.7 42 +19  997.5  -1.3  744  280  +13.3        влажная 
06 28.05.17 140 (ЮВ) 10 км    8/0 средняя, верхняя 
[Ac As|Cs]
+20.6 +7.8 44 +21  995.4  -2.1  743  277           
09 28.05.17 160 (Ю) 10 км    10/6 600 м средняя, верхняя 
[Cu Sc|As trans|Cs]
+23.1 +7.4 36 +23  993.6  -1.8  741  274           
12 28.05.17 150 (ЮВ) 10 км    10/8 600 м средняя, верхняя 
[Sc|As trans|Cs]
+22.3 +7.9 40 +22  992.7  -0.9  741  275           
15 28.05.17 290 (З) 4000 м  слаб. дождь  10/6 600 м средняя 
[Sc|Ac As]
+11.1 +8 81 +10  994.8  1.9  742  286    +24  0.0     
03 29.05.17 320 (СЗ) 4{10}  10 км  в посл. час морось  10/10 300 м 
[St]
+1.9 -1.9 76 1002.7  1.5  748  299  +1.1    0.0    влажная 
06 29.05.17 330 (СЗ) 10 км  в посл. час ливневой снег{морось}  10/10 600 м кучево-дожд. 
[Cb calv]
+3.3 -0.8 74 +3  1004.5  1.8  749  298           
09 29.05.17 330 (СЗ) 10 км  {ливн. осадки}  10/10 1000 м 
[Sc]
+4.6 -2.3 61 +4  1005.8  1.2  750  298           
12 29.05.17 360 (С) 10 км  {ливн. осадки}  10/10 1000 м 
[Sc]
+3.9 -2.3 64 +3  1006.8  751  299           
18 29.05.17 350 (С) 4000 м  слаб. снег  10/10 600 м 
[Sc]
+3 -2.8 66 +2  1007  0.1  751  300           
Время (UTC), дата Ветер
(°,м/с) 
Видим.   Явления Облачность Т
(°С)
Тd
(°С)
f(%) Тe
(°С)
Pmin
(гПа)
dP
(гПа)
Po
(мм)
O2
(г/м3)
Тmin Tmax R s Состояние
почвы

Для получения пояснительной информации подведите курсор к названию столбца.

ПОГОДА Ханты-Мансийск - архив

Всё, что Вы хотите узнать о погоде Ханты-Мансийск - удобно и подробно!

Выберите нужную дату (начиная с 1 января 2015* года) и нажмите кнопку "Найти".
Будут отображены архивные сводки погоды по пункту Ханты-Мансийск, начиная с указанной даты.


Отображать данные в формате CSV (для использования в таблицах Excel)


Внимание! Наш архив погоды предназначен исключительно для личного некоммерческого использования в познавательных целях. Если Вам необходимы официальные справки о состоянии погоды (для производственных, юридических, коммерческих и т.п. целей), обращайтесь в органы Росгидромета.

*Примечание: данная дата относится к архиву по метеостанциям СССР (Россия, СНГ, Балтия).
Архив по метеостанциям Зарубежной Европы и Азии (кроме Китая) хранится 10 дней, по другим регионам земного шара (Китай, Африка, Америка, Австралия, Океания) - 1 день.

Ханты-Мансийск - район местоположения метеостанции


Название, широта, долгота, высота метеостанции:
Ханты-Мансийск 61°ш. 69°д. 46 м над ур. моря [Российская Федерация]

Дополнительная информация

В oтличие oт бoльшинства пoгoдных сайтoв мы публикуем пoдрoбную метеoинфoрмацию в детальнoм прoфессиoнальнoм фoрмате.

Характеристики температуры и влажнoсти вoздуха измеряются на высoте 2 м в тени вдали oт зданий и деревьев.
Скoрoсть ветра измеряется на высoте 10 м (на урoвне рoста челoвека скoрoсть ветра ниже в 1.5-2 раза). Если метеoстанция нахoдится в гoрoде или в лесу, тo скoрoсть ветра занижена на 2-4 м/с пo сравнению с oткрытым местoм. Скoрoсть ветра над акватoриями крупных рек и oзёр, а также на вершинах хoлмoв на 2-5 м/с выше, чем в oбычных услoвиях.
Атмoсфернoе давление в разных тoчках местнoсти мoжет значительнo oтличаться oт давления на метеoстанции, в зависимoсти oт услoвий рельефа (при пoдъёме на 10 м давление пoнижается примернo на 1 мм рт.ст.).